Cahokia, IL

5:25 AM CST on December 08, 2019 (GMT -0600)
Saint Louis Downtown

Weather History for KCPS - October, 2019

Change the Weather History Date:

Saturday, October 5, 2019

  Actual Average Record
Temperature  
Mean Temperature 65 °F -  
Max Temperature 79 °F 71 °F 91 °F (2007)
Min Temperature 52 °F 55 °F 32 °F (1999)
Growing Degree Days 15 (Base 50)    
Moisture  
Dew Point 51 °F    
Average Humidity 61    
Maximum Humidity 83    
Minimum Humidity 42    
Precipitation  
Precipitation 0.00 in - - ()
Sea Level Pressure  
Sea Level Pressure 30.02 in    
Wind  
Wind Speed 5 mph (SE)    
Max Wind Speed 10 mph    
Max Gust Speed -    
Visibility 10 miles    
Events Rain , Thunderstorm    
Averages and records for this station are not official NWS values.
T = Trace of Precipitation, MM = Missing Value Source: NWS Daily Summary

Daily Weather History Graph

Daily Weather History Graph

Search for Another Location

Airport or City:

Astronomy

Oct. 05, 2019 Rise Set
Actual Time 6:59 AM CDT 6:37 PM CDT
Civil Twilight 6:33 AM CDT 7:04 PM CDT
Nautical Twilight 6:02 AM CDT 7:34 PM CDT
Astronomical Twilight 5:31 AM CDT 8:05 PM CDT
Moon 2:21 PM CDT (10/5) No Moon Set
Length of Visible Light 12h 30m
Length of Day
11h 37m
Waxing Crescent, 50% of the Moon is Illuminated
Oct 5
Waxing Crescent
Oct 13
Full
Oct 21
Last Quarter
Oct 27
New
Nov 4
First Quarter

Hourly Weather History & Observations

Time (CDT) Temp. Dew Point Humidity Pressure Visibility Wind Dir Wind Speed Gust Speed Precip Events Conditions
12:53 AM 55.9 °F 48.0 °F 75% 30.17 in 10.0 mi East 4.6 mph - N/A   Clear
1:53 AM 54.0 °F 46.9 °F 77% 30.17 in 10.0 mi Calm Calm - N/A   Clear
2:53 AM 54.0 °F 46.9 °F 77% 30.14 in 10.0 mi East 4.6 mph - N/A   Clear
3:53 AM 55.0 °F 46.9 °F 74% 30.14 in 10.0 mi NE 3.5 mph - N/A   Clear
4:53 AM 52.0 °F 46.9 °F 83% 30.12 in 10.0 mi Calm Calm - N/A   Clear
5:53 AM 52.0 °F 46.9 °F 83% 30.12 in 10.0 mi East 3.5 mph - N/A   Clear
6:53 AM 53.1 °F 46.9 °F 80% 30.11 in 10.0 mi SE 4.6 mph - N/A   Clear
7:53 AM 55.0 °F 48.0 °F 77% 30.12 in 10.0 mi ESE 3.5 mph - N/A   Clear
8:53 AM 57.0 °F 48.9 °F 74% 30.09 in 10.0 mi SE 9.2 mph - N/A   Clear
9:53 AM 62.1 °F 50.0 °F 65% 30.06 in 10.0 mi SSE 10.4 mph - N/A   Clear
10:53 AM 68.0 °F 50.0 °F 52% 30.04 in 10.0 mi SSE 9.2 mph - N/A   Clear
11:53 AM 73.0 °F 51.1 °F 46% 30.04 in 10.0 mi North - - N/A   Clear
12:53 PM 75.9 °F 51.1 °F 42% 30.00 in 10.0 mi SSE 10.4 mph - N/A   Clear
1:53 PM 73.9 °F 50.0 °F 43% 29.98 in 10.0 mi SSE 6.9 mph - N/A   Partly Cloudy
2:53 PM 75.9 °F 51.1 °F 42% 29.95 in 10.0 mi South 6.9 mph - N/A   Mostly Cloudy
3:38 PM 77.0 °F 52.0 °F 42% 29.95 in 10.0 mi South 6.9 mph - N/A Thunderstorm Mostly Cloudy
3:53 PM 77.0 °F 54.0 °F 45% 29.94 in 10.0 mi SSE 5.8 mph - 0.00 in Rain Light Rain
4:53 PM 78.1 °F 55.0 °F 45% 29.93 in 10.0 mi ESE 3.5 mph - 0.00 in   Clear
5:53 PM 73.9 °F 55.9 °F 53% 29.88 in 10.0 mi SSE 9.2 mph - N/A   Partly Cloudy
6:53 PM 73.9 °F 50.0 °F 43% 29.90 in 10.0 mi South 4.6 mph - N/A   Clear
7:53 PM 68.0 °F 53.1 °F 59% 29.92 in 10.0 mi NW 5.8 mph - N/A   Partly Cloudy
8:53 PM 68.0 °F 53.1 °F 59% 29.92 in 10.0 mi SSE 5.8 mph - N/A   Clear
9:53 PM 66.9 °F 52.0 °F 59% 29.94 in 10.0 mi South 5.8 mph - N/A   Clear
10:53 PM 64.9 °F 53.1 °F 65% 29.96 in 10.0 mi West 3.5 mph - N/A   Clear
11:53 PM 66.9 °F 59.0 °F 76% 29.96 in 10.0 mi WNW 6.9 mph - N/A   Partly Cloudy